TimeCST,TemperatureF,Dew PointF,Humidity,Sea Level PressureIn,VisibilityMPH,Wind Direction,Wind SpeedMPH,Gust SpeedMPH,PrecipitationIn,Events,Conditions,WindDirDegrees,DateUTC
12:15 AM,24.6,19.4,81,30.19,10.0,Calm,Calm,-,N/A,,Overcast,0,2013-03-01 06:15:00
12:35 AM,24.4,19.8,82,30.19,10.0,NNW,5.8,-,N/A,Snow,Light Snow,340,2013-03-01 06:35:00
12:55 AM,24.4,19.9,83,30.20,10.0,North,5.8,-,N/A,,Overcast,350,2013-03-01 06:55:00
1:15 AM,24.1,20.1,85,30.20,7.0,NNW,4.6,-,N/A,Snow,Light Snow,340,2013-03-01 07:15:00
1:35 AM,23.9,20.3,86,30.20,7.0,North,3.5,-,N/A,Snow,Light Snow,360,2013-03-01 07:35:00
1:55 AM,23.9,20.3,86,30.20,7.0,NNW,4.6,-,N/A,Snow,Light Snow,330,2013-03-01 07:55:00
2:15 AM,23.9,20.3,86,30.20,7.0,NNW,5.8,-,N/A,Snow,Light Snow,340,2013-03-01 08:15:00
2:35 AM,23.7,20.3,87,30.20,5.0,NNW,5.8,-,N/A,Snow,Light Snow,330,2013-03-01 08:35:00
2:55 AM,23.7,20.3,87,30.20,5.0,NNW,6.9,-,N/A,Snow,Light Snow,340,2013-03-01 08:55:00
3:15 AM,23.5,20.7,89,30.20,5.0,NNW,6.9,-,N/A,Snow,Light Snow,340,2013-03-01 09:15:00
3:35 AM,23.4,20.3,88,30.20,4.0,NNW,6.9,-,N/A,Snow,Light Snow,330,2013-03-01 09:35:00
3:55 AM,23.0,20.3,89,30.20,4.0,North,8.1,-,N/A,Snow,Light Snow,350,2013-03-01 09:55:00
4:15 AM,23.0,20.1,89,30.20,5.0,Calm,Calm,-,N/A,Snow,Light Snow,0,2013-03-01 10:15:00
4:35 AM,23.0,20.1,89,30.21,5.0,NNW,6.9,-,N/A,Snow,Light Snow,340,2013-03-01 10:35:00
4:55 AM,22.8,19.9,89,30.21,5.0,NNW,10.4,-,N/A,Snow,Light Snow,340,2013-03-01 10:55:00
5:15 AM,22.8,19.9,89,30.22,5.0,North,9.2,-,N/A,Snow,Light Snow,350,2013-03-01 11:15:00
5:35 AM,22.8,19.4,87,30.22,7.0,North,10.4,-,N/A,Snow,Light Snow,350,2013-03-01 11:35:00
5:55 AM,22.5,18.1,83,30.22,10.0,North,9.2,-,N/A,,Overcast,360,2013-03-01 11:55:00
6:15 AM,22.1,18.1,85,30.22,10.0,North,9.2,-,N/A,,Overcast,360,2013-03-01 12:15:00
6:35 AM,22.1,18.0,84,30.23,10.0,North,8.1,16.1,N/A,,Overcast,360,2013-03-01 12:35:00
6:55 AM,21.6,17.4,84,30.23,10.0,NNW,9.2,-,N/A,,Overcast,330,2013-03-01 12:55:00
7:15 AM,21.6,16.7,82,30.24,10.0,North,12.7,-,N/A,,Overcast,350,2013-03-01 13:15:00
7:35 AM,20.7,16.3,83,30.25,10.0,North,6.9,-,N/A,,Mostly Cloudy,10,2013-03-01 13:35:00
7:55 AM,20.3,15.8,83,30.25,10.0,North,6.9,-,N/A,,Mostly Cloudy,10,2013-03-01 13:55:00
8:15 AM,20.7,15.6,81,30.26,10.0,North,8.1,-,N/A,,Mostly Cloudy,10,2013-03-01 14:15:00
8:35 AM,20.1,14.5,79,30.27,10.0,North,11.5,17.3,N/A,,Scattered Clouds,10,2013-03-01 14:35:00
8:55 AM,19.4,13.6,78,30.27,10.0,North,12.7,18.4,N/A,,Scattered Clouds,360,2013-03-01 14:55:00
9:15 AM,19.6,14.0,79,30.28,10.0,North,9.2,-,N/A,,Mostly Cloudy,350,2013-03-01 15:15:00
9:35 AM,20.3,14.7,79,30.28,7.0,North,11.5,-,N/A,Snow,Light Snow,10,2013-03-01 15:35:00
9:55 AM,20.3,14.9,80,30.29,10.0,North,11.5,-,N/A,,Overcast,10,2013-03-01 15:55:00
10:15 AM,20.7,15.3,80,30.29,7.0,North,9.2,-,N/A,Snow,Light Snow,10,2013-03-01 16:15:00
10:35 AM,21.6,15.8,78,30.28,7.0,North,9.2,-,N/A,Snow,Light Snow,10,2013-03-01 16:35:00
10:55 AM,22.3,16.2,77,30.29,10.0,NNE,9.2,-,N/A,,Overcast,20,2013-03-01 16:55:00
11:15 AM,23.0,17.1,78,30.29,10.0,NNE,8.1,-,N/A,,Overcast,30,2013-03-01 17:15:00
11:35 AM,23.7,16.9,75,30.29,10.0,North,9.2,-,N/A,,Overcast,10,2013-03-01 17:35:00
11:55 AM,23.9,16.7,74,30.30,10.0,North,10.4,-,N/A,,Overcast,10,2013-03-01 17:55:00
12:15 PM,24.4,16.7,72,30.30,10.0,NNE,9.2,-,N/A,,Overcast,20,2013-03-01 18:15:00
12:35 PM,24.4,17.6,75,30.29,10.0,North,9.2,-,N/A,,Overcast,10,2013-03-01 18:35:00
12:55 PM,24.4,16.7,72,30.29,10.0,North,11.5,-,N/A,,Overcast,350,2013-03-01 18:55:00
1:15 PM,24.4,14.9,67,30.29,10.0,North,11.5,-,N/A,,Overcast,360,2013-03-01 19:15:00
1:35 PM,24.4,14.9,67,30.29,10.0,North,11.5,16.1,N/A,,Overcast,10,2013-03-01 19:35:00
1:55 PM,24.4,15.1,68,30.29,10.0,North,11.5,-,N/A,,Overcast,360,2013-03-01 19:55:00
2:15 PM,24.4,15.1,68,30.29,10.0,North,9.2,-,N/A,,Overcast,360,2013-03-01 20:15:00
2:35 PM,24.4,14.2,65,30.29,10.0,North,10.4,-,N/A,,Overcast,350,2013-03-01 20:35:00
2:55 PM,24.6,14.9,67,30.29,10.0,North,9.2,-,N/A,,Overcast,10,2013-03-01 20:55:00
3:15 PM,24.8,14.5,65,30.29,10.0,North,9.2,-,N/A,,Overcast,10,2013-03-01 21:15:00
3:35 PM,24.8,14.9,66,30.29,10.0,North,10.4,-,N/A,,Overcast,360,2013-03-01 21:35:00
3:55 PM,24.8,14.7,66,30.29,10.0,North,9.2,-,N/A,,Overcast,10,2013-03-01 21:55:00
4:15 PM,24.6,15.4,68,30.30,10.0,North,9.2,-,N/A,,Overcast,10,2013-03-01 22:15:00
4:35 PM,24.3,14.2,65,30.30,10.0,North,9.2,-,N/A,,Overcast,10,2013-03-01 22:35:00
4:55 PM,24.3,14.7,67,30.30,10.0,NNE,10.4,-,N/A,,Overcast,30,2013-03-01 22:55:00
5:15 PM,23.9,14.7,68,30.31,10.0,NNE,8.1,-,N/A,,Overcast,30,2013-03-01 23:15:00
5:35 PM,23.9,14.9,69,30.31,10.0,North,6.9,-,N/A,,Overcast,10,2013-03-01 23:35:00
5:55 PM,23.9,15.3,70,30.32,10.0,North,6.9,-,N/A,,Overcast,10,2013-03-01 23:55:00
6:15 PM,23.7,15.3,70,30.33,10.0,North,6.9,-,N/A,,Overcast,10,2013-03-02 00:15:00
6:35 PM,23.2,15.1,71,30.33,10.0,North,8.1,-,N/A,,Overcast,360,2013-03-02 00:35:00
6:55 PM,23.0,14.9,71,30.33,10.0,Calm,Calm,-,N/A,,Overcast,0,2013-03-02 00:55:00
7:15 PM,23.0,14.9,71,30.33,10.0,NNE,6.9,-,N/A,,Overcast,20,2013-03-02 01:15:00
7:35 PM,23.0,15.1,72,30.34,10.0,NNE,4.6,-,N/A,,Overcast,20,2013-03-02 01:35:00
7:55 PM,22.8,15.1,72,30.34,10.0,North,6.9,-,N/A,,Overcast,10,2013-03-02 01:55:00
8:15 PM,22.6,15.8,75,30.35,10.0,North,8.1,-,N/A,,Overcast,360,2013-03-02 02:15:00
8:35 PM,22.1,14.9,74,30.35,10.0,NNE,8.1,-,N/A,,Overcast,20,2013-03-02 02:35:00
8:55 PM,22.1,15.6,76,30.34,10.0,NNW,6.9,-,N/A,,Overcast,340,2013-03-02 02:55:00
9:15 PM,22.1,15.6,76,30.34,10.0,NNE,8.1,-,N/A,,Overcast,20,2013-03-02 03:15:00
9:35 PM,21.7,15.4,77,30.35,10.0,NNW,8.1,-,N/A,,Overcast,340,2013-03-02 03:35:00
9:55 PM,21.2,15.1,77,30.36,10.0,North,6.9,-,N/A,,Overcast,350,2013-03-02 03:55:00
10:15 PM,21.2,15.3,78,30.36,10.0,North,8.1,-,N/A,,Overcast,350,2013-03-02 04:15:00
10:35 PM,20.8,14.9,78,30.36,10.0,North,5.8,-,N/A,,Overcast,10,2013-03-02 04:35:00
10:55 PM,20.3,14.7,79,30.35,10.0,NNE,4.6,-,N/A,,Overcast,20,2013-03-02 04:55:00
11:15 PM,20.3,14.9,80,30.34,10.0,NNW,6.9,-,N/A,,Overcast,340,2013-03-02 05:15:00
11:35 PM,20.1,14.5,79,30.34,10.0,North,8.1,-,N/A,,Overcast,10,2013-03-02 05:35:00
11:55 PM,20.1,14.5,79,30.34,10.0,North,5.8,-,N/A,,Overcast,360,2013-03-02 05:55:00